TimeCDT,TemperatureF,Dew PointF,Humidity,Sea Level PressureIn,VisibilityMPH,Wind Direction,Wind SpeedMPH,Gust SpeedMPH,PrecipitationIn,Events,Conditions,WindDirDegrees,DateUTC
12:52 AM,70.0,60.1,71,30.11,10.0,Calm,Calm,-,N/A,,Clear,0,2013-09-05 05:52:00
1:52 AM,71.1,60.1,68,30.11,10.0,ESE,3.5,-,N/A,,Clear,110,2013-09-05 06:52:00
2:52 AM,70.0,60.1,71,30.12,10.0,Calm,Calm,-,N/A,,Partly Cloudy,0,2013-09-05 07:52:00
3:52 AM,68.0,59.0,73,30.11,10.0,Calm,Calm,-,N/A,,Clear,0,2013-09-05 08:52:00
4:52 AM,68.0,59.0,73,30.10,10.0,Calm,Calm,-,N/A,,Clear,0,2013-09-05 09:52:00
5:52 AM,66.0,59.0,78,30.11,10.0,Calm,Calm,-,N/A,,Clear,0,2013-09-05 10:52:00
6:52 AM,63.0,59.0,87,30.14,10.0,Calm,Calm,-,N/A,,Clear,0,2013-09-05 11:52:00
7:52 AM,68.0,61.0,78,30.15,10.0,Calm,Calm,-,N/A,,Clear,0,2013-09-05 12:52:00
8:52 AM,72.0,61.0,68,30.16,10.0,ESE,3.5,-,N/A,,Clear,110,2013-09-05 13:52:00
9:52 AM,77.0,62.1,60,30.17,10.0,Calm,Calm,-,N/A,,Clear,0,2013-09-05 14:52:00
10:52 AM,82.0,64.0,54,30.17,10.0,East,4.6,-,N/A,,Clear,100,2013-09-05 15:52:00
11:52 AM,86.0,64.0,48,30.15,10.0,South,5.8,-,N/A,,Clear,170,2013-09-05 16:52:00
12:52 PM,88.0,63.0,43,30.13,10.0,SSE,5.8,-,N/A,,Clear,150,2013-09-05 17:52:00
1:52 PM,91.0,63.0,39,30.11,10.0,Variable,5.8,-,N/A,,Clear,0,2013-09-05 18:52:00
2:52 PM,90.0,61.0,38,30.09,10.0,Calm,Calm,-,N/A,,Clear,0,2013-09-05 19:52:00
3:52 PM,91.9,61.0,35,30.08,10.0,South,8.1,-,N/A,,Clear,170,2013-09-05 20:52:00
4:52 PM,93.0,60.1,33,30.07,10.0,South,9.2,-,N/A,,Clear,170,2013-09-05 21:52:00
5:52 PM,90.0,62.1,39,30.06,10.0,ESE,5.8,-,N/A,,Clear,120,2013-09-05 22:52:00
6:52 PM,87.1,62.1,43,30.06,10.0,SSE,5.8,-,N/A,,Clear,150,2013-09-05 23:52:00
7:52 PM,82.9,62.1,49,30.06,10.0,Calm,Calm,-,N/A,,Clear,0,2013-09-06 00:52:00
8:52 PM,81.0,62.1,52,30.07,10.0,Calm,Calm,-,N/A,,Clear,0,2013-09-06 01:52:00
9:52 PM,79.0,63.0,58,30.08,10.0,East,3.5,-,N/A,,Clear,90,2013-09-06 02:52:00
10:52 PM,75.9,63.0,64,30.08,10.0,Calm,Calm,-,N/A,,Clear,0,2013-09-06 03:52:00
11:52 PM,75.9,62.1,62,30.08,10.0,Calm,Calm,-,N/A,,Clear,0,2013-09-06 04:52:00